This is the latest recevied weather packets stored in our database for station/object KB8SSH. If no packets are shown the sender has not sent any weather packets the latest 10 day(s).
| Time | Temp. | Humidity | Pressure | Rain* | Wind** | Luminosity | Snow |
|---|---|---|---|---|---|---|---|
| 1777656352 | 9.44° C | 87% | 1045.3 hPa | 0 mm | - | 46 W/m² | - |
| 1777656047 | 9.44° C | 87% | 1045.3 hPa | 0 mm | - | 52 W/m² | - |
| 1777655744 | 9.44° C | 87% | 1045.3 hPa | 0 mm | - | 46 W/m² | - |
| 1777655441 | 10° C | 88% | 1045.3 hPa | 0 mm | - | 60 W/m² | - |
| 1777655137 | 10° C | 87% | 1045.3 hPa | 0 mm | - | 70 W/m² | - |
| 1777654835 | 10° C | 88% | 1045.3 hPa | 0 mm | - | 81 W/m² | - |
| 1777654532 | 10° C | 88% | 1045.3 hPa | 0 mm | - | 238 W/m² | - |
| 1777654230 | 10° C | 87% | 1045.3 hPa | 0 mm | - | 73 W/m² | - |
| 1777653927 | 10.56° C | 87% | 1045.3 hPa | 0 mm | - | 38 W/m² | - |
| 1777653624 | 10.56° C | 89% | 1044.9 hPa | 0 mm | - | 180 W/m² | - |
| 1777653320 | 10° C | 89% | 1044.6 hPa | 1.27 mm | - | 483 W/m² | - |
| 1777653017 | 8.89° C | 90% | 1044.9 hPa | 1.27 mm | - | 347 W/m² | - |
| 1777652713 | 8.89° C | 90% | 1044.6 hPa | 0 mm | - | 172 W/m² | - |
| 1777652410 | 8.89° C | 91% | 1045.3 hPa | 0 mm | - | 129 W/m² | - |
| 1777652108 | 8.33° C | 91% | 1044.9 hPa | 0 mm | - | 69 W/m² | - |
| 1777651804 | 8.33° C | 91% | 1045.3 hPa | 0 mm | - | 50 W/m² | - |
| 1777651501 | 8.33° C | 92% | 1045.3 hPa | 0 mm | - | 42 W/m² | - |
| 1777651198 | 8.89° C | 93% | 1045.6 hPa | 1.78 mm | - | 41 W/m² | - |
| 1777650895 | 8.33° C | 92% | 1045.3 hPa | 1.78 mm | - | 35 W/m² | - |
| 1777650591 | 8.33° C | 92% | 1045.3 hPa | 1.27 mm | - | 45 W/m² | - |
| 1777650289 | 8.33° C | 92% | 1045.3 hPa | 1.27 mm | - | 38 W/m² | - |
| 1777649986 | 8.33° C | 92% | 1045.3 hPa | 0 mm | - | 40 W/m² | - |
| 1777649683 | 8.33° C | 92% | 1045.3 hPa | 0 mm | - | 33 W/m² | - |
| 1777649378 | 8.33° C | 91% | 1045.3 hPa | 0 mm | - | 56 W/m² | - |
| 1777649076 | 8.33° C | 91% | 1045.3 hPa | 1.78 mm | - | 92 W/m² | - |
* Rain latest hour (hover to see other rain measurements)
** Current wind speed in m/s (hover to see current wind gust speed)